EHI
10 9 8 7 6 4 3 3 3 3 3 3 3 4 4 4 4 3 3 3 3 3 3 3 3 3 3 1 0 0 0 0 0 0 0 0 0 0 0 0 0 0 0
10 9 8 7 6 4 3 3 3 3 3 3 3 4 5 5 4 3 3 3 3 3 3 3 3 3 3 2 1 0 0 0 0 0 0 0 0 0 0 0 0 0 0
10 10 9 7 6 4 3 3 3 3 3 3 3 3 4 5 4 3 3 3 3 3 3 3 3 3 3 3 1 0 0 0 0 0 0 0 0 0 0 0 0 0 0
11 10 9 8 6 5 3 3 3 3 3 3 3 3 3 4 3 3 3 3 3 3 3 4 3 3 3 3 2 1 0 0 0 0 0 0 0 0 0 0 0 0 0
9 9 9 9 8 6 4 3 3 3 3 3 3 3 3 3 3 3 3 3 3 4 4 4 4 3 3 2 2 1 0 0 0 0 0 0 0 0 0 0 0 0 0
8 9 9 10 9 8 5 3 3 3 3 3 3 3 3 3 2 1 1 2 3 4 4 4 3 2 1 1 1 0 0 0 0 0 0 0 0 0 0 0 0 0 0
7 8 9 9 9 8 5 3 3 2 3 3 3 3 3 2 1 0 0 1 2 4 4 3 2 1 0 0 0 0 0 0 0 0 0 0 0 0 0 0 0 0 0
6 7 7 7 7 6 5 3 1 1 1 2 2 2 1 1 0 0 0 0 1 2 3 3 2 1 0 0 0 0 0 0 0 0 0 0 0 0 0 0 0 0 0
5 6 6 6 6 5 4 2 1 0 0 1 1 1 0 0 0 0 0 0 0 1 2 3 2 1 0 0 0 0 0 0 0 0 0 0 0 0 0 0 0 0 0
5 6 6 6 5 4 4 3 1 0 0 0 0 1 1 0 0 0 0 0 0 0 1 2 1 0 0 0 0 0 0 0 0 0 0 0 0 0 0 0 0 0 0
4 5 7 6 5 5 5 4 2 1 0 0 1 2 1 0 0 0 0 0 0 0 0 1 1 0 0 0 0 0 0 0 0 0 0 0 0 0 0 0 0 0 0
3 4 6 6 5 5 5 4 3 2 1 1 2 2 1 0 0 0 0 0 0 0 0 0 0 0 0 0 0 0 0 0 0 0 0 0 0 0 0 0 0 0 0
1 2 4 4 4 4 4 3 3 3 3 2 2 1 0 0 0 0 0 0 0 0 0 0 0 0 0 0 0 0 0 0 0 0 0 0 0 0 0 0 0 0 0
0 1 2 3 3 3 3 3 3 3 3 2 1 0 0 0 0 0 0 0 0 0 0 0 0 0 0 0 0 0 0 0 0 0 0 0 0 0 0 0 0 0 0
0 1 2 3 3 3 3 3 3 2 2 1 0 0 0 0 0 0 0 0 0 0 0 0 0 0 0 0 0 0 0 0 0 0 0 0 0 0 0 0 0 0 0
0 1 2 3 3 3 3 3 1 1 1 0 0 0 0 0 0 0 0 0 0 0 0 0 0 0 0 0 0 0 0 0 0 0 0 0 0 0 0 0 0 0 0
0 1 2 3 3 3 3 3 1 0 0 0 0 0 0 0 0 0 0 0 0 0 0 0 0 0 0 0 0 0 0 0 0 0 0 0 0 0 0 0 0 0 0
0 1 2 3 3 3 3 3 2 1 0 0 0 0 0 0 0 0 0 0 0 0 0 0 0 0 0 0 0 0 0 0 0 0 0 0 0 0 0 0 0 0 0
0 0 1 2 3 3 2 2 2 2 0 0 0 0 0 0 0 0 0 0 0 0 0 0 0 0 0 0 0 0 0 0 0 0 0 0 0 0 0 0 0 0 0
1 1 0 1 3 3 1 1 2 1 0 0 0 0 0 0 0 0 0 0 0 0 0 0 0 0 0 0 0 0 0 0 0 0 0 0 0 0 0 0 0 0 0
2 2 1 1 3 3 2 2 2 1 0 0 0 0 0 0 0 0 0 0 0 0 0 0 0 0 0 0 0 0 0 0 0 0 0 0 0 0 0 0 0 0 0
3 3 3 3 3 3 3 3 2 1 0 0 0 0 0 0 0 0 0 0 0 0 0 0 0 0 0 0 0 0 0 0 0 0 0 0 0 0 0 0 0 0 0
3 3 3 3 3 3 3 3 2 1 0 0 0 0 0 0 0 0 0 0 0 0 0 0 0 0 0 0 0 0 0 0 0 0 0 0 0 0 0 0 0 0 0
2 3 3 3 3 3 3 2 1 0 0 0 0 0 0 0 0 0 0 0 0 0 0 0 0 0 0 0 0 0 0 0 0 0 0 0 0 0 0 0 0 0 0
1 2 3 3 3 3 2 1 0 0 0 0 0 0 0 0 0 0 0 0 0 0 0 0 0 0 0 0 0 0 0 0 0 0 0 0 0 0 0 0 0 0 0
0 1 3 3 3 2 1 0 0 0 0 0 0 0 0 0 0 0 0 0 0 0 0 0 0 0 0 0 0 0 0 0 0 0 0 0 0 0 0 0 0 0 0
Wind_Speed
2 3 3 3 3 3 2 2 3 3 3 3 3 3 3 3 3 3 3 3 3 3 3 3 3 2 2 2 2 2 2 2 3 2 1 1 2 2 1 2 2 2 2
2 3 3 2 3 3 3 3 3 3 2 3 3 3 3 3 3 3 3 4 4 4 3 3 3 2 2 2 2 2 3 3 3 2 1 1 2 2 2 2 2 2 2
2 3 2 2 3 3 3 3 3 3 3 3 3 3 3 3 3 3 3 4 4 4 4 4 4 4 4 3 3 3 2 2 2 2 2 1 1 1 1 1 1 1 3
2 3 3 3 3 3 3 3 3 3 3 3 3 3 3 3 3 3 3 3 3 3 4 4 5 5 5 5 4 4 3 2 2 2 2 1 1 1 1 1 1 1 2
2 3 3 3 2 2 2 2 2 3 3 3 2 2 2 2 3 3 3 4 3 3 3 4 4 6 6 5 4 4 4 3 3 2 2 1 2 1 2 2 2 2 2
2 2 2 2 2 2 2 2 2 2 2 2 2 2 2 2 3 4 3 3 3 4 3 3 3 4 5 7 7 6 6 6 5 4 3 3 4 3 2 2 2 1 2
1 1 2 2 2 2 2 2 2 2 2 2 2 2 2 2 3 4 4 3 3 4 4 3 3 3 3 3 4 5 7 8 8 6 6 6 5 5 4 3 3 3 4
1 1 1 2 2 1 2 2 2 1 2 2 2 2 2 2 3 3 4 3 3 3 4 4 4 3 3 3 3 3 5 6 7 6 7 7 6 5 6 5 4 3 3
1 1 1 2 2 1 1 1 1 1 1 1 2 2 2 3 3 3 2 2 2 3 3 4 4 4 5 4 4 4 5 5 5 7 7 7 6 7 6 4 3 3 3
1 1 1 1 2 2 2 1 1 1 1 1 1 2 2 3 3 3 3 2 2 2 2 2 4 5 5 4 4 4 5 5 4 3 4 4 4 5 8 7 6 5 3
1 1 1 1 1 2 1 1 1 1 1 1 1 1 2 2 3 3 3 2 2 2 2 2 3 4 5 5 5 5 7 5 4 4 3 3 3 3 5 6 6 6 5
1 1 1 1 1 0 1 1 1 1 1 0 1 1 1 2 2 3 4 4 3 2 3 3 3 4 5 5 5 5 6 4 2 3 3 3 3 4 4 5 7 7 7
1 1 1 1 0 0 1 1 0 1 1 0 1 1 2 2 1 2 4 4 3 2 2 4 4 5 4 4 5 5 3 2 2 2 3 4 4 4 3 3 4 5 6
1 1 1 1 1 0 0 1 1 1 1 1 1 2 2 2 2 1 1 2 2 2 2 2 3 3 2 2 2 2 2 2 3 3 3 3 2 2 3 2 2 2 3
1 1 1 1 1 1 1 2 2 3 3 3 2 2 2 3 3 3 2 2 2 2 1 1 1 1 1 1 1 1 1 1 2 2 2 3 2 3 3 2 2 3 3
1 1 1 1 1 1 1 1 1 2 2 4 4 3 2 3 3 2 2 3 3 2 1 1 1 2 2 2 2 2 2 2 2 2 3 3 3 3 3 2 3 3 4
1 1 1 1 1 1 1 1 1 2 2 1 2 2 3 3 3 2 2 2 1 2 1 2 2 2 2 2 2 2 2 2 2 2 3 3 3 3 2 3 3 4 4
1 1 1 1 1 1 1 2 2 1 1 2 2 2 2 3 3 3 2 1 0 1 1 2 2 3 3 2 2 2 2 2 2 2 2 3 3 3 3 3 3 4 4
1 1 1 1 1 1 1 1 1 2 2 1 2 2 2 2 2 1 1 1 2 2 2 2 2 2 2 2 2 2 2 2 2 2 3 3 3 3 3 4 4 5 5
1 2 1 1 1 1 1 1 1 1 1 1 2 2 1 1 1 1 1 1 2 2 2 3 3 3 2 2 2 2 2 2 3 3 3 3 3 3 4 5 4 4 4
1 2 2 1 0 1 1 1 1 1 1 2 2 2 2 1 2 2 2 2 2 3 3 3 3 3 3 3 3 3 4 3 3 3 3 4 3 3 4 4 5 5 5
1 1 1 1 1 1 1 1 1 1 2 2 3 3 2 1 2 2 2 3 3 3 3 3 3 3 3 3 3 3 4 4 4 4 4 4 4 4 4 4 4 4 4
1 1 1 1 1 1 1 1 1 2 2 2 3 2 2 2 2 3 3 3 3 3 3 2 3 3 3 3 3 4 4 5 4 4 4 4 4 4 4 4 5 5 5
1 1 1 1 1 1 1 1 2 2 2 2 2 2 3 3 3 3 3 3 2 2 2 2 3 4 5 4 3 3 4 4 4 4 5 5 5 4 4 5 5 6 6
1 1 1 1 1 1 1 2 2 2 3 3 2 2 2 2 2 2 2 2 3 2 3 2 2 3 4 5 4 4 3 3 3 3 4 4 5 5 5 5 5 5 5
1 1 1 1 1 1 1 2 2 2 2 2 2 2 2 2 2 2 2 2 2 2 3 2 3 3 4 4 4 4 3 3 3 3 3 3 4 4 4 4 5 5 5
Wind_Direction
200 197 181 172 165 160 166 179 181 173 170 169 176 173 175 176 175 171 184 179 180 192 193 186 198 196 191 191 187 184 193 188 210 234 229 237 218 237 250 240 241 239 248
198 186 187 175 164 165 184 192 182 175 172 175 172 175 181 180 181 179 189 191 190 197 202 196 209 202 202 204 198 201 202 193 195 222 226 223 227 233 236 236 240 238 247
185 177 170 171 171 183 196 193 179 170 167 168 175 185 189 185 187 190 195 200 199 202 203 204 210 202 212 213 209 209 207 198 190 196 220 227 242 237 233 250 247 256 254
174 171 172 181 181 186 188 180 170 165 166 177 186 193 198 193 190 192 199 204 205 211 214 213 213 210 214 211 212 212 204 197 186 189 207 217 233 241 212 235 262 259 264
166 173 185 180 164 160 165 169 159 160 174 178 179 191 196 195 194 198 202 202 205 216 224 224 227 226 222 212 214 206 200 199 192 193 201 202 211 207 217 219 240 274 264
169 183 175 156 152 159 164 161 157 168 177 170 182 191 205 214 204 205 201 204 207 215 229 237 240 237 235 229 228 214 201 199 201 199 205 210 221 217 206 206 213 236 265
149 155 147 150 153 165 163 151 173 189 179 184 199 198 210 236 221 213 212 203 212 219 224 229 239 241 230 235 239 231 227 224 210 201 209 217 212 205 195 205 207 215 239
99 102 113 131 147 157 155 170 188 184 185 198 199 198 209 245 234 223 223 212 221 227 225 223 226 240 234 225 230 236 239 236 226 218 223 226 223 211 202 206 213 229 258
98 103 119 121 121 139 164 198 200 168 187 208 195 195 210 243 236 230 209 209 225 241 241 234 228 237 238 219 215 237 251 254 241 231 233 237 229 220 205 191 194 209 253
171 189 154 136 157 186 204 227 214 181 207 218 225 217 220 236 237 228 197 188 224 251 264 258 248 246 244 226 220 225 244 253 245 242 240 238 226 216 206 206 205 208 224
205 180 167 167 178 181 172 185 180 173 171 229 250 271 252 247 239 221 201 191 216 242 257 267 264 256 253 247 238 232 238 243 240 233 240 244 238 223 214 212 211 209 214
175 178 184 199 209 137 126 112 113 134 145 238 282 309 302 279 244 226 218 217 210 217 247 264 274 273 264 256 245 245 246 238 232 230 232 238 237 237 232 224 220 221 226
168 189 192 184 140 151 155 157 154 143 138 246 269 282 298 309 287 247 234 235 233 230 256 269 279 280 274 261 252 251 239 222 215 228 238 241 237 236 236 237 231 229 236
211 221 198 194 214 220 203 180 179 189 205 235 251 269 280 291 291 285 264 250 251 257 282 298 298 293 280 270 276 252 229 221 220 232 241 251 242 230 229 226 232 232 240
271 267 234 214 212 225 235 217 207 219 210 212 228 237 250 271 274 256 242 249 244 248 256 310 328 329 317 302 283 264 244 224 229 242 243 248 254 246 240 227 223 221 230
318 284 255 236 233 224 227 305 285 236 243 227 225 224 243 251 275 272 262 266 265 235 185 246 264 264 269 272 271 268 255 242 240 238 241 246 247 250 252 236 227 231 240
257 260 248 234 232 226 217 214 275 320 318 269 233 234 243 269 283 276 268 274 265 173 193 243 253 258 261 261 259 259 259 257 241 234 240 247 252 252 253 254 245 242 245
301 284 266 247 242 236 230 231 226 234 282 309 304 272 275 284 282 281 262 152 109 172 227 245 252 253 252 252 251 253 258 260 244 236 238 241 243 248 249 250 250 251 252
320 288 273 278 291 287 274 256 238 237 250 279 308 324 321 303 294 288 177 186 222 233 235 243 250 252 256 256 253 249 247 244 246 242 237 235 237 243 251 254 254 255 254
310 308 303 275 293 300 295 278 259 249 254 268 280 290 323 2 325 312 215 231 241 248 244 244 246 246 248 253 256 256 252 247 246 244 249 246 243 244 251 257 259 257 253
312 317 324 329 320 288 269 241 233 227 242 259 272 275 261 240 254 259 253 246 247 250 249 247 247 249 250 251 250 250 251 254 252 250 252 252 250 252 255 256 257 257 257
300 313 317 311 310 291 270 250 237 241 255 267 279 288 274 257 258 257 255 256 254 251 249 247 250 251 253 251 248 246 250 255 256 254 252 253 255 258 259 258 256 257 258
296 311 311 307 301 299 287 276 268 263 265 268 271 278 275 262 256 254 256 261 262 259 253 247 253 262 266 264 257 249 250 253 253 251 250 253 256 257 258 258 259 260 258
263 277 281 286 291 294 280 283 283 282 280 276 277 276 273 269 265 267 269 272 274 277 273 268 269 278 286 286 279 271 267 266 259 248 241 246 254 260 262 261 259 260 261
257 267 276 280 273 272 276 278 281 282 285 285 283 282 282 279 278 281 285 290 293 296 299 299 294 292 297 297 294 289 287 276 266 266 248 245 250 256 262 264 265 265 261
269 271 272 288 295 287 280 283 285 285 285 289 290 291 289 282 278 282 288 295 299 300 304 308 310 307 304 299 299 296 289 281 271 259 249 248 254 262 265 266 269 267 266